STARLINK-1591, 46045

Orbit data source: Space-Track

STARLINK-1591, 46045 is a payload satellite owned by SpaceX/Seattle (US) in LEO that was launched on Fri, 07 Aug 2020 UTC via an FALCON 9 launch vehicle from the Air Force Eastern Test Range (AFETR). Payload-class satellites include a variety of spacecraft equipped with specific instruments for various scientific and technological missions. These include communications satellites like Starlink; space stations such as the ISS; scientific satellites like the Hubble; Earth observation satellites from companies like Planet Labs, Umbra, and HawkEye 360; GPS; miniature CubeSats for education and research; and military/defense satellites.

Loading next visibility...
Identifier
46045, 2020-055U
Orbit
LEO
Country
Flag of USUS
Related business
Manufacturer
SpaceX/Seattle
Mission
Operational Commercial Communications
Bus & Motor
STARLINK, Unknown motor
Mass
260 kg wet, ~248 kg dry
Launch date (UTC)
2020-08-07 (6 years ago)
Launch vehicle
FALCON 9
Launch site
Air Force Eastern Test Range (AFETR)
Object type
Payload
Rocket body
Debris
Shape & HBR
Box + 1 Pan, 10.1 m
Radar Cross Section
13.562 m², Large (>1 m²)

Expand to show TLE details & history
Last TLE update: 8 hours ago

TLE from 8 hours ago
0 STARLINK-1591
1 46045U 20055U   26219.94301141  .00004689  00000-0  16273-3 0  9993
2 46045  53.1583 143.5895 0001223  77.6777 282.4361 15.31706272332031
Epoch: 2026-08-07T22:37Z
TLE epoch observation values (Epoch: 2026-08-07T22:37:56.185Z)
Latitude
-0.00006°
Longitude
-152.35611°
Altitude
471.441 km
Speed
7.632 km/s
True Right ascension
09h 34m 21s
True Declination
0° 00' 00"
Sunlit
Object was in daylight at epoch
Visualization orbit readout
Latitude
Unknown
Longitude
Unknown
Altitude
Unknown
Speed
Unknown
Apparent Right ascension
Unknown
Apparent Declination
Unknown
Sunlit
N/A
Visualization observer readout
Local Sidereal Time
21:11:23
Azimuth
Unknown
Elevation
Unknown
Doppler factor
Unknown
Orbital elements
Apogee altitude
471.816 km
Perigee altitude
470.141 km
Semi-major axis
6,849.115 km
Eccentricity
0.00012
Inclination
53.1583°
RAAN
143.5895°
Arg. of periapsis
77.6777°
True anomaly
282.42241°
Mean anomaly
282.4361°
Eccentric anomaly
282.42926°
Mean motion
3.82905 °/min
Orbital period
94.02 mins
BSTAR
0.00016273
Loading maneuver chart data...
Computing Atmospheric mass density...
Loading historical data...
Loading historical data...
Loading historical data...
Loading historical data...
Loading historical data...
Loading historical data...
Loading historical data...

Documentation

Showing up to 5 results
|